This is the latest recevied weather packets stored in our database for station/object CE1RLP-31. If no packets are shown the sender has not sent any weather packets the latest 10 day(s).
| Time | Temp. | Humidity | Pressure | Rain* | Wind** | Luminosity | Snow |
|---|---|---|---|---|---|---|---|
| 1777389753 | 12.78° C | 12% | 1099.2 hPa | - | - | - | - |
| 1777388853 | 12.22° C | 11% | 1099.1 hPa | - | - | - | - |
| 1777387993 | 11.11° C | 12% | 1099.2 hPa | - | - | - | - |
| 1777387953 | 11.11° C | 12% | 1099.2 hPa | - | - | - | - |
| 1777387053 | 10.56° C | 12% | 1099.2 hPa | - | - | - | - |
| 1777386153 | 10° C | 12% | 1099.1 hPa | - | - | - | - |
| 1777385253 | 9.44° C | 11% | 1099 hPa | - | - | - | - |
| 1777384350 | 8.89° C | 11% | 1099 hPa | - | - | - | - |
| 1777383447 | 8.33° C | 11% | 1099 hPa | - | - | - | - |
| 1777382547 | 7.22° C | 12% | 1098.9 hPa | - | - | - | - |
| 1777381647 | 6.67° C | 12% | 1099 hPa | - | - | - | - |
| 1777380747 | 6.11° C | 14% | 1099.5 hPa | - | - | - | - |
| 1777379847 | 5.56° C | 14% | 1098.7 hPa | - | - | - | - |
| 1777378947 | 5° C | 15% | 1098.7 hPa | - | - | - | - |
| 1777378047 | 4.44° C | 15% | 1098.7 hPa | - | - | - | - |
| 1777377147 | 3.89° C | 16% | 1098.6 hPa | - | - | - | - |
| 1777376246 | 3.33° C | 17% | 1098.6 hPa | - | - | - | - |
| 1777375346 | 3.33° C | 17% | 1098.5 hPa | - | - | - | - |
| 1777374446 | 2.78° C | 18% | 1098.4 hPa | - | - | - | - |
| 1777373546 | 2.78° C | 19% | 1098.3 hPa | - | - | - | - |
| 1777372646 | 2.78° C | 20% | 1098.3 hPa | - | - | - | - |
| 1777371746 | 2.78° C | 21% | 1098.1 hPa | - | - | - | - |
| 1777370846 | 2.78° C | 23% | 1098 hPa | - | - | - | - |
| 1777369947 | 2.78° C | 24% | 1098 hPa | - | - | - | - |
| 1777369047 | 2.78° C | 24% | 1097.9 hPa | - | - | - | - |
* Rain since midnight (hover to see other rain measurements)
** Current wind speed in m/s (hover to see current wind gust speed)